This demonstration page uses our WeatherBlox Daily Observations layout. Learn more.

Left ArrowRight Arrow

Hourly Observations for August 19, 2019

Temp ( °F °C ) Dew Point ( °F °C ) Humidity (%) Winds ( mph kmh ) Pressure ( in mb ) Visibility ( mi km ) Precip ( " mm )
12:59 am 00:59 Partly Cloudy 77 25 75 23.9 94 94 Calm 30.01 1016 10 16 0.00 0.00
1:59 am 01:59 Clear 77 25 75 23.9 94 94 S 3 6 30.00 1016 10 16 0.00 0.00
2:59 am 02:59 Clear 77 25 75 23.9 94 94 SSW 3 6 30.00 1016 10 16 0.00 0.00
3:59 am 03:59 Clear 77 25 75 23.9 94 94 S 3 6 30.00 1016 10 16 0.00 0.00
4:59 am 04:59 Clear 76 24.4 74 23.3 94 94 SSW 3 6 30.00 1016 10 16 0.00 0.00
5:59 am 05:59 Partly Cloudy 75 23.9 74 23.3 96 96 S 3 6 30.02 1017 10 16 0.00 0.00
6:59 am 06:59 Mostly Sunny 76 24.4 74 23.3 94 94 Calm 30.03 1017 10 16 0.00 0.00
7:59 am 07:59 Mostly Sunny 79 26.1 75 23.9 88 88 SW 7 11 30.05 1018 9 14 0.00 0.00
8:59 am 08:59 Mostly Sunny 82 27.8 76 24.4 82 82 WSW 7 11 30.04 1017 10 16 0.00 0.00
9:59 am 09:59 Mostly Sunny 86 30 77 25 75 75 VRB 5 7 30.05 1018 10 16 0.00 0.00
10:59 am 10:59 Mostly Sunny 90 32.2 77 25 66 66 Calm 30.04 1017 10 16 0.00 0.00
11:59 am 11:59 Mostly Sunny 91 32.8 75 23.9 59 59 VRB 3 6 30.04 1017 10 16 0.00 0.00
12:59 pm 12:59 Mostly Sunny 93 33.9 74 23.3 54 54 SW 7 11 30.03 1017 10 16 0.00 0.00
1:59 pm 13:59 Mostly Cloudy 94 34.4 74 23.3 52 52 VRB 5 7 30.02 1017 10 16 0.00 0.00
2:59 pm 14:59 Mostly Cloudy 94 34.4 75 23.9 54 54 N 7 11 30.01 1016 10 16 0.00 0.00
3:53 pm 15:53 Mostly Cloudy with Thunderstorms 93 34 73 23 53 53 VRB 5 7 30.00 1016 10 16 0.00 0.00
3:59 pm 15:59 Mostly Cloudy with Thunderstorms 93 33.9 73 22.8 52 52 N 3 6 30.00 1016 10 16 0.00 0.00
4:59 pm 16:59 Mostly Cloudy with Thunderstorms 93 33.9 70 21.1 47 47 E 6 9 30.00 1016 10 16 0.00 0.00
5:43 pm 17:43 Partly Cloudy 90 32.2 71 21.7 54 54 SE 7 11 29.99 1016 10 16 0.00 0.00
5:59 pm 17:59 Partly Cloudy 91 32.8 73 22.8 56 56 SE 5 7 29.98 1015 10 16 0.00 0.00
6:59 pm 18:59 Partly Cloudy 89 31.7 75 23.9 63 63 SSE 7 11 29.98 1015 10 16 0.00 0.00
7:59 pm 19:59 Partly Cloudy 87 30.6 76 24.4 70 70 SSE 5 7 30.01 1016 10 16 0.00 0.00
8:59 pm 20:59 Partly Cloudy 86 30 76 24.4 72 72 S 6 9 30.04 1017 10 16 0.00 0.00
9:59 pm 21:59 Mostly Cloudy 85 29.4 75 23.9 72 72 S 6 9 30.04 1017 10 16 0.00 0.00
10:59 pm 22:59 Partly Cloudy 83 28.3 76 24.4 79 79 SSW 8 13 30.04 1017 10 16 0.00 0.00
11:59 pm 23:59 Mostly Cloudy 82 27.8 72 22.2 72 72 SW 8 13 30.06 1018 10 16 0.00 0.00

Powered by AerisWeather